www.pogodaiklimat.ru

Погода и климат >> Архив погоды >> Россия >> Ханты-Мансийский АО >> Леуши


ПОГОДА в Леушах

  • Прогноз погоды в Леушах
  • Монитор погоды в Леушах
  • Климат города

АРХИВ ПОГОДЫ в Леушах

Время (UTC), дата Ветер
(напр.,м/с)
 
Видим.   Явления Облачность Т
(С)
Тd
(С)
f
(%)
Тe
(С)
Тes
(С)
Комфортность P
(гПа)
Po
(гПа)
Тmin
(С)
Tmax
(С)
R
(мм)
R24
(мм)
S
(см)
09 19.06 ЮВ 3 50 км в посл. час дождь 10/8 600 м
[Sc Ac As]
+15.5 +13.6 88 +15 +16 985.5 977.5
12 19.06 Ю 3 10 км слабый дождь {ливн. осадки} 10/10 300 м
[Frnb]
+13.9 +12.1 89 +13 +13 984.7 976.6
15 19.06 Ю 2 10 км слабый дождь 10/10 600 м
[Sc]
+13.3 +12.4 94 +12 +12 984.3 976.2 +17.1 10
18 19.06 Ю 3 20 км в посл. час ливневой дождь 10/10 600 м
[Cb cap]
+13.3 +12.4 94 +12 +12 984.3 976.2
21 19.06 Ю 2
{10}
10 км слабый дождь {ливн. осадки} 10/10 600 м
[Sc]
+12.6 +11.7 94 +12 +12 985.4 977.2
00 20.06 Ю 2 10 км слабый дождь {ливн. осадки} 10/10 600 м
[Sc]
+12.0 +11.1 94 +11 +11 986.3 978.1
03 20.06 Ю 2 4000 м слабый дождь 10/0 300 м
[As op]
+12.3 +11.2 93 +11 +12 987.2 979.0 +12.0 4
06 20.06 ЮЗ 1 4000 м слабый дождь 10/10 300 м
[Frnb Ns]
+12.9 +11.6 92 +13 +13 988.6 980.4
09 20.06 ЮЗ 2 50 км {дождь} 10/10 300 м
[Frnb]
+13.6 +11.7 88 +13 +13 990.3 982.1
12 20.06 З 2 10 км слабый дождь 10/10 600 м
[Sc]
+12.9 +11.3 90 +12 +12 991.9 983.7
15 20.06 ЮЗ 1 50 км слабый дождь 10/10 300 м
[Frnb]
+12.6 +11.1 91 +13 +13 992.7 984.5 +13.6 2
18 20.06 ЮЗ 1 20 км {дождь} 10/3 600 м
[Sc Ac lent Ci fib]
+11.6 +10.2 91 +11 +11 993.5 985.2
21 20.06 ЮВ 1 20 км 10/3 600 м
[Sc Ci fib]
+10.3 +9.2 93 +10 +10 993.7 985.3
00 21.06 Ю 1 50 км 10/3 600 м
[Sc diur, vesp Ac lent Ci]
+11.7 +10.4 92 +11 +12 993.5 985.2
03 21.06 ЮВ 1 50 км 8/4 600 м
[Sc diur, vesp Ci fib]
+16.9 +13.7 81 +18 +21 993.9 985.8 +9.9 0.0
06 21.06 ЮВ 2 50 км 5/3 600 м
[Sc diur, vesp Ac lent Cc]
+21.4 +14.8 66 +24 +32 комфорт 993.7 985.7
09 21.06 СЗ 1 50 км 8/6 600 м
[Cb cap Ci sp]
+22.8 +14.0 58 +26 +32 жарко 993.8 985.8
12 21.06 Ю 1 50 км {ливн. осадки} 10/5 600 м
[Cb cap Ci sp]
+22.4 +17.0 72 +27 +30 душно 994.2 986.2
15 21.06 штиль 0 50 км 10/3 1000 м
[Cu hum Ac trans Ci sp]
+21.0 +14.4 66 +24 +24 комфорт 995.1 987.0 +24.2 5
18 21.06 ЮВ 1 20 км 10/3 600 м
[Sc diur, vesp Ac trans Cc]
+16.7 +13.8 83 +18 +18 996.3 988.1
21 21.06 ЮЗ 1 20 км ясно +15.2 +12.8 86 +16 +16 997.1 988.9
00 22.06 ЮЗ 2 50 км ясно +13.9 +12.0 88 +13 +14 998.2 989.9
03 22.06 З 1 50 км 10/0
[Ci fib]
+19.7 +14.6 72 +23 +28 комфорт 999.4 991.4 +13.8
06 22.06 Ю 1 50 км 10/0
[Ci fib]
+25.2 +13.2 47 +27 +39 жарко 1000.0 992.1
09 22.06 ЮЗ 1 50 км 10/6 1000 м
[Cu med, cong Ci fib]
+25.4 +12.1 43 +27 +32 жарко 1000.3 992.4
12 22.06 Ю 1 50 км 10/5 1000 м
[Cu med, cong Ci fib]
+25.4 +10.2 38 +26 +29 жарко 1000.6 992.6
15 22.06 ЮВ 1 50 км 10/0
[Ci fib]
+22.3 +12.2 53 +25 +26 комфорт 1001.4 993.4 +26.7
18 22.06 ЮВ 1 20 км 10/0
[Ac lent Ci fib]
+18.7 +11.8 64 +20 +20 1002.1 994.0
21 22.06 Ю 2 20 км 10/3 600 м
[Sc diur, vesp Ac lent Ci fib]
+17.7 +11.7 68 +18 +18 1002.3 994.1
00 23.06 Ю 2 50 км 10/5
[Sc Ac lent Cc]
+17.2 +12.1 72 +18 +18 1002.2 994.0
03 23.06 Ю 1 50 км 10/4 600 м
[Sc Ac trans Cc]
+19.8 +14.5 71 +23 +25 комфорт 1002.3 994.2 +17.1
06 23.06 Ю 3 50 км 9/4 600 м
[Cb cap Cc]
+25.1 +13.0 47 +27 +32 жарко 1001.7 993.8
09 23.06 З 1 50 км 8/6 600 м
[Cb cap Ac lent Cc]
+24.2 +15.1 57 +27 +32 жарко 1002.2 994.2
12 23.06 З 2 4000 м гроза, ливневой дождь 10/6 600 м
[Cb cap As op Ci sp]
+20.8 +13.0 61 +24 +25 комфорт 1002.5 994.5
15 23.06 З 1 50 км {гроза, ливн. осадки} 10/5 600 м
[Sc Ac As]
+16.6 +15.3 92 +17 +18 1003.2 995.0 +26.1 2
18 23.06 ЮВ 1 20 км {гроза, ливн. осадки} 10/8 600 м
[Sc Ac lent Cc]
+15.9 +15.0 94 +17 +17 1003.1 994.9
21 23.06 Ю 1 20 км {гроза, ливн. осадки} 10/10 600 м
[Sc]
+13.8 +12.7 93 +14 +14 1004.2 996.0
00 24.06 Ю 1 50 км {гроза, ливн. осадки} 10/9 600 м
[Sc Cs]
+13.0 +12.2 95 +13 +13 1003.7 995.4
03 24.06 Ю 1 50 км 10/4 300 м
[Frnb Ac cast Cc]
+15.7 +14.3 91 +16 +18 1004.2 995.9 +13.0 9
06 24.06 В 1 50 км 6/3 1000 м
[Cu med, cong Ac trans]
+20.1 +14.8 72 +24 +32 комфорт 1003.7 995.6
09 24.06 СЗ 2 50 км 4/3 1000 м
[Cu med, cong Ci fib]
+22.0 +6.8 37 +23 +32 комфорт 1003.2 995.1
12 24.06 СЗ 3 50 км 4/3 1000 м
[Cu med, cong Ci]
+22.1 +6.3 36 +23 +26 комфорт 1002.8 994.7
15 24.06 З 1 50 км 6/3 600 м
[Sc diur, vesp Ac lent Ci sp]
+19.0 +5.4 41 +21 +21 комфорт 1002.9 994.7 +22.9
18 24.06 Ю 1 20 км 8/8 600 м
[Cb cap As trans]
+15.2 +8.4 64 +16 +16 1002.7 994.5
21 24.06 СЗ 3
{10}
20 км 9/8 600 м
[Cb cap Ac cast Cs]
+14.1 +10.3 78 +13 +13 1003.1 994.8
00 25.06 ЮЗ 1 50 км {ливн. осадки} 3/1 600 м
[Sc diur, vesp Ac lent Ci fib]
+11.1 +9.5 90 +11 +11 1004.5 996.1
03 25.06 ЮЗ 1 50 км ясно +16.6 +10.3 66 +18 +24 1004.4 996.2 +10.2 0.0
06 25.06 Ю 1 50 км 4/3 1000 м
[Cu hum Ci fib]
+20.5 +9.6 50 +23 +34 комфорт 1004.1 995.9
09 25.06 ЮВ 1 50 км 10/5 1000 м
[Cu hum Cs]
+21.9 +8.7 43 +23 +29 комфорт 1003.8 995.7
12 25.06 ЮВ 2 50 км 10/0
[Ac As]
+21.9 +9.5 45 +23 +25 комфорт 1002.9 994.9
15 25.06 В 1 50 км 10/8 600 м
[Sc Ac trans]
+20.1 +13.3 65 +23 +23 комфорт 1001.8 993.7 +22.6
18 25.06 В 2 20 км в посл. час дождь 10/10 600 м
[Sc]
+15.8 +13.7 87 +16 +16 1001.2 993.0
21 25.06 ЮВ 2 20 км 10/10 600 м
[Sc]
+15.5 +14.0 91 +15 +15 999.3 991.1
00 26.06 ЮВ 2 4000 м гроза, ливневой дождь 10/10 600 м
[Cb cap]
+14.8 +13.6 93 +14 +14 998.1 989.9
03 26.06 ЮВ 2
{11}
50 км {гроза, ливн. осадки} 10/10 600 м
[Cb cap]
+15.3 +13.8 91 +15 +15 996.9 988.7 +14.2 12
06 26.06 Ю 2 50 км {гроза, ливн. осадки} 10/8 600 м
[Cb cap Ci fib]
+18.8 +15.2 80 +20 +22 996.0 987.9

 

Местоположение метеостанции Леуши (Ханты-Мансийский АО, Россия): широта 59.63 долгота 65.72 высота над уровнем моря 72 м.

В архиве по умолчанию представлена погода в Леушах за последнюю неделю. Архивные данные за месяц целиком и за предыдущие месяцы, начиная с января 2011 года, Вы можете получить, выбрав интересующий диапазон дат из раскрывающегося списка и нажав кнопку "Ввод!".

Внимание! Время в таблицах - всемирное. Для получения местного времени необходимо прибавить поправку, которая в Леушах равна 5 ч.

Смотрите также архив погоды в соседних городах и на ближайших метеорологических станциях:

Погода в Кондинском (Ханты-Мансийский АО, Россия) (96 км)
Погода в Куминской (Ханты-Мансийский АО, Россия) (103 км)
Погода в Шаиме (Ханты-Мансийский АО, Россия) (113 км)
Погода в Таборах (Свердловская область, Россия) (141 км)
Погода в Тавде (Свердловская область, Россия) (175 км)
Погода в Увате (Тюменская область, Россия) (188 км)
Погода в Гари (Свердловская область, Россия) (192 км)
Погода в Алтае (Ханты-Мансийский АО, Россия) (197 км)
Погода в Демьянском (Тюменская область, Россия) (200 км)
Погода в Туринске (Свердловская область, Россия) (211 км)

Пояснения к столбцам:

Ветер - указаны скорость ветра в м/с - средняя за 10 мин, порывы в срок и между сроками (в фигурных скобках) и направление, откуда дует ветер: С - северный, СВ - северо-восточный, В - восточный, ЮВ - юго-восточный, Ю - южный, ЮЗ - юго-западный, З - западный, СЗ - северо-западный.
Видимость - горизонтальная дальность видимости в метрах или километрах. При видимости от 1 до 10 км при отсутствии осадков обычно наблюдается дымка, при ухудшении видимости до 1 км и менее - туман. В сухую погоду видимость может ухудшаться дымом, пылью или мглою.
Явления - указаны атмосферные явления, наблюдавшиеся в срок или в последний час перед сроком; фигурными скобками обозначены явления, наблюдавшиеся между сроками (за 1-3 часа до срока); квадратными скобками обозначены град или гололедные отложения с указанием их диаметра в мм.
Облачность - указаны через наклонную черту общая и нижняя облачность в баллах и высота нижней границы облаков в метрах; квадратными скобками обозначены формы облаков: Ci - перистые, Cs - перисто-слоистые, Cc - перисто-кучевые, Ac - высококучевые, As - высокослоистые, Sc - слоисто-кучевые, Ns - слоисто-дождевые, Cu - кучевые, Cb - кучево-дождевые. Подробнее классификацию облаков см. в Атласе облаков (PDF).
T - Температура воздуха - температура, измеренная на высоте 2 м над землей.
Td - Температура точки росы - температура, при понижении до которой содержащийся в воздухе водяной пар достигнет насыщения.
f - Относительная влажность воздуха - влажноcть воздуха, измеренная на высоте 2 м над землей.
Te - Эффективная температура - температура, которую ощущает одетый по сезону человек в тени. Характеристика душности погоды. При расчете учитывается влияние влажности воздуха и скорости ветра на теплоощущения человека.
Tes - Эффективная температура на солнце - температура, которую ощущает человек, с поправкой на солнечный нагрев. Характеристика знойности погоды. Зависит от высоты солнца над горизонтом, облачности и скорости ветра. Ночью, в пасмурную погоду, а также при ветре 12 м/с и более поправка равна нулю.
P - Атмосферное давление - приведенное к уровню моря атмосферное давление.
Po - Атмосферное давление - измеренное на уровне метеостанции атмосферное давление.
Tmin - Минимальная температура - минимум температуры воздуха на высоте 2 м над землей.
Tmax - Максимальная температура - максимум температуры воздуха на высоте 2 м над землей.
R - Количество осадков - Количество выпавших осадков за период времени, мм. При наведении курсора мыши на число - период времени, за который выпало указанное количество осадков.
R24 - Количество осадков - Количество выпавших осадков за 24 часа, мм.
S - Снежный покров - Высота снежного покрова, см. При наведении курсора мыши на число - состояние снежного покрова и степень покрытия местности в баллах.